Location: Adrasan
(36.3319°N, 30.4314°E)
Time: 02:04:43
(UTC+00:00)

Cosmos 1553 Rocket - Visible Passes

Search period start: 28 May 2024 00:00
Search period end: 07 June 2024 00:00
Orbit: 940 x 1008 km, 82.9° (Epoch: 27 May)

Date Brightness Start Highest point End Pass type
(mag) Time Alt. Az. Time Alt. Az. Time Alt. Az.
28 May 4.0 20:19:34 10° N 20:25:36 59° E 20:25:36 59° E visible
28 May 5.9 22:06:37 10° NW 22:10:14 17° W 22:10:14 17° W visible
29 May 5.8 19:01:39 10° NE 19:04:40 14° ENE 19:05:57 13° E visible
29 May 3.9 20:44:32 10° N 20:50:36 74° W 20:50:36 74° W visible
30 May 5.1 19:25:03 10° NNE 19:30:04 26° ENE 19:30:58 25° E visible
30 May 4.8 21:09:53 10° NNW 21:15:28 39° W 21:15:37 39° W visible
31 May 4.2 19:49:24 10° N 19:55:19 49° E 19:56:00 47° E visible
31 May 5.6 21:35:51 10° NW 21:40:12 21° W 21:40:39 21° W visible
01 Jun 5.9 18:32:34 10° NE 18:34:15 11° ENE 18:35:56 10° E visible
01 Jun 3.8 20:14:15 10° N 20:20:23 89° W 20:21:03 73° S visible
02 Jun 5.3 18:55:06 10° NNE 18:59:44 22° ENE 19:01:28 20° E visible
02 Jun 4.5 20:39:28 10° NNW 20:45:17 47° W 20:46:06 45° WSW visible
03 Jun 4.5 19:19:16 10° N 19:25:01 41° ENE 19:26:32 35° ESE visible
03 Jun 5.4 21:05:12 10° NNW 21:10:04 25° W 21:11:11 24° WSW visible
04 Jun 3.9 19:43:59 10° N 19:50:07 77° E 19:51:38 53° SSE visible
04 Jun 6.2 21:32:08 10° WNW 21:34:39 13° W 21:36:17 12° W visible
05 Jun 5.5 18:25:16 10° NNE 18:29:22 18° ENE 18:32:05 14° ESE visible
05 Jun 4.3 20:09:06 10° NNW 20:15:05 58° W 20:16:44 44° SW visible
06 Jun 4.8 18:49:11 10° NNE 18:54:43 34° ENE 18:57:13 25° ESE visible
06 Jun 5.3 20:34:39 10° NNW 20:39:53 31° W 20:41:52 25° WSW visible
